WZZ139 ENGM-EPGD

Flight info

Callsign WZZ139
Flight time 1h 10m
Altitude 37000
Route OKSAT DCT PENOR DCT MOTAD N133 DOMAG T240 OGDAV
Aircraft A321/M-SDE3FGHIRWY/LB1

Departure

Time 2026-04-30 19:03
Airport Oslo-Gardermoen International Airport (ENGM)

Arrival

Time 2026-04-30 20:14
Airport Gdańsk Lech Wałęsa Airport (EPGD)
Time Latitude Longitude Altitude Speed Heading
2026-04-30 18:34 60.19670 11.09976 685 ft 0 kts 105°
2026-04-30 18:35 60.19670 11.09975 685 ft 0 kts 106°
2026-04-30 18:52 60.19671 11.09973 685 ft 2 kts 106°
2026-04-30 18:53 60.19678 11.09924 683 ft 4 kts 106°
2026-04-30 18:53 60.19683 11.09884 680 ft 0 kts 106°
2026-04-30 18:56 60.19685 11.09890 681 ft 1 kts 77°
2026-04-30 18:56 60.19696 11.09885 682 ft 3 kts 337°
2026-04-30 18:56 60.19706 11.09838 684 ft 9 kts 291°
2026-04-30 18:57 60.19772 11.09801 684 ft 8 kts 20°
2026-04-30 18:57 60.19826 11.09835 684 ft 9 kts 17°
2026-04-30 18:57 60.19896 11.09875 682 ft 12 kts 16°
2026-04-30 18:58 60.19961 11.10069 683 ft 9 kts 103°
2026-04-30 18:58 60.19945 11.10196 684 ft 10 kts 105°
2026-04-30 18:58 60.19924 11.10341 682 ft 12 kts 106°
2026-04-30 18:59 60.19868 11.10732 684 ft 18 kts 106°
2026-04-30 19:00 60.19773 11.11475 684 ft 9 kts 55°
2026-04-30 19:00 60.19798 11.11496 684 ft 7 kts 19°
2026-04-30 19:00 60.19928 11.11575 680 ft 14 kts 16°
2026-04-30 19:01 60.20119 11.11686 685 ft 14 kts 16°
2026-04-30 19:01 60.20169 11.11794 685 ft 12 kts 79°
2026-04-30 19:02 60.20127 11.12100 689 ft 11 kts 118°
2026-04-30 19:02 60.19959 11.12155 688 ft 18 kts 196°
2026-04-30 19:03 60.18806 11.11488 685 ft 149 kts 196°
2026-04-30 19:03 60.16533 11.10213 1688 ft 177 kts 197°
2026-04-30 19:04 60.14021 11.09410 2768 ft 192 kts 182°
2026-04-30 19:04 60.11579 11.12109 3657 ft 218 kts 137°
2026-04-30 19:05 60.09419 11.16593 4674 ft 229 kts 135°
2026-04-30 19:05 60.07169 11.21255 5677 ft 235 kts 143°
2026-04-30 19:06 60.04202 11.24490 6666 ft 255 kts 156°
2026-04-30 19:06 60.02588 11.26136 7161 ft 267 kts 156°
2026-04-30 19:06 59.99136 11.29655 8168 ft 289 kts 156°
2026-04-30 19:07 59.95497 11.33365 9173 ft 296 kts 155°
2026-04-30 19:07 59.93659 11.35239 9691 ft 298 kts 155°
2026-04-30 19:08 59.89961 11.39009 10698 ft 307 kts 155°
2026-04-30 19:08 59.86035 11.42985 11676 ft 326 kts 155°
2026-04-30 19:08 59.83980 11.45055 12182 ft 336 kts 155°
2026-04-30 19:09 59.79695 11.49365 13221 ft 353 kts 155°
2026-04-30 19:09 59.77485 11.51583 13740 ft 360 kts 155°
2026-04-30 19:09 59.75222 11.53859 14263 ft 367 kts 155°
2026-04-30 19:10 59.70583 11.58529 15241 ft 380 kts 155°
2026-04-30 19:10 59.65824 11.63290 16392 ft 387 kts 155°
2026-04-30 19:11 59.63412 11.65698 16971 ft 390 kts 155°
2026-04-30 19:11 59.58514 11.70577 18104 ft 398 kts 155°
2026-04-30 19:11 59.56025 11.73041 18655 ft 401 kts 155°
2026-04-30 19:12 59.53545 11.75487 19143 ft 405 kts 155°
2026-04-30 19:12 59.51010 11.77984 19635 ft 409 kts 154°
2026-04-30 19:12 59.48453 11.80501 20100 ft 413 kts 154°
2026-04-30 19:13 59.43274 11.85590 21116 ft 420 kts 154°
2026-04-30 19:13 59.38007 11.90761 22105 ft 426 kts 154°
2026-04-30 19:13 59.35345 11.93371 22582 ft 429 kts 154°
2026-04-30 19:14 59.32734 11.96254 23037 ft 433 kts 146°
2026-04-30 19:14 59.30350 11.99882 23485 ft 436 kts 140°
2026-04-30 19:14 59.27999 12.03668 23930 ft 439 kts 140°
2026-04-30 19:14 59.25633 12.07458 24314 ft 441 kts 140°
2026-04-30 19:15 59.23243 12.11273 24687 ft 444 kts 140°
2026-04-30 19:15 59.18429 12.18931 25418 ft 449 kts 140°
2026-04-30 19:15 59.16030 12.22740 25790 ft 452 kts 140°
2026-04-30 19:16 59.13585 12.26623 26156 ft 454 kts 140°
2026-04-30 19:16 59.11129 12.30512 26527 ft 457 kts 140°
2026-04-30 19:16 59.06169 12.38350 27234 ft 462 kts 140°
2026-04-30 19:17 59.03668 12.42294 27584 ft 464 kts 140°
2026-04-30 19:17 58.98620 12.50222 28276 ft 468 kts 140°
2026-04-30 19:17 58.96075 12.54201 28651 ft 470 kts 140°
2026-04-30 19:18 58.91830 12.60818 29207 ft 474 kts 140°
2026-04-30 19:18 58.88385 12.66175 29635 ft 477 kts 140°
2026-04-30 19:18 58.85786 12.70212 29970 ft 479 kts 140°
2026-04-30 19:19 58.83185 12.74251 30301 ft 481 kts 139°
2026-04-30 19:19 58.80570 12.78305 30598 ft 483 kts 139°
2026-04-30 19:19 58.75327 12.86395 31371 ft 481 kts 140°
2026-04-30 19:20 58.72716 12.90407 31772 ft 480 kts 140°
2026-04-30 19:20 58.70141 12.94354 32160 ft 479 kts 140°
2026-04-30 19:20 58.64943 13.02307 32934 ft 476 kts 140°
2026-04-30 19:21 58.62355 13.06255 33343 ft 475 kts 140°
2026-04-30 19:21 58.57189 13.14113 34097 ft 473 kts 140°
2026-04-30 19:22 58.52038 13.21906 34769 ft 471 kts 140°
2026-04-30 19:22 58.44333 13.33543 35636 ft 470 kts 140°
2026-04-30 19:23 58.36646 13.45060 36508 ft 467 kts 141°
2026-04-30 19:24 58.31536 13.52676 37063 ft 466 kts 141°
2026-04-30 19:24 58.28989 13.56469 37313 ft 465 kts 141°
2026-04-30 19:25 58.16267 13.75290 37374 ft 463 kts 141°
2026-04-30 19:26 58.06079 13.90266 37369 ft 464 kts 141°
2026-04-30 19:27 57.98437 14.01384 37381 ft 464 kts 141°
2026-04-30 19:28 57.90750 14.12502 37371 ft 465 kts 141°
2026-04-30 19:29 57.80527 14.27246 37376 ft 465 kts 141°
2026-04-30 19:30 57.70252 14.41945 37373 ft 466 kts 141°
2026-04-30 19:31 57.60672 14.55546 37383 ft 466 kts 141°
2026-04-30 19:31 57.52961 14.66430 37387 ft 466 kts 141°
2026-04-30 19:32 57.47789 14.73704 37382 ft 466 kts 141°
2026-04-30 19:32 57.42653 14.80888 37375 ft 466 kts 141°
2026-04-30 19:33 57.37453 14.88124 37380 ft 466 kts 141°
2026-04-30 19:33 57.32427 14.95110 37376 ft 466 kts 141°
2026-04-30 19:34 57.27224 15.02327 37372 ft 467 kts 141°
2026-04-30 19:35 57.19413 15.13101 37374 ft 468 kts 141°
2026-04-30 19:35 57.14215 15.20226 37370 ft 468 kts 141°
2026-04-30 19:36 57.08983 15.27380 37376 ft 468 kts 141°
2026-04-30 19:36 57.01102 15.38026 37374 ft 469 kts 143°
2026-04-30 19:37 56.95715 15.44809 37380 ft 470 kts 144°
2026-04-30 19:37 56.90264 15.51442 37386 ft 471 kts 144°
2026-04-30 19:38 56.84809 15.58120 37381 ft 472 kts 143°
2026-04-30 19:38 56.79367 15.64844 37381 ft 472 kts 143°
2026-04-30 19:39 56.73925 15.71574 37383 ft 473 kts 143°
2026-04-30 19:39 56.68468 15.78278 37386 ft 473 kts 143°
2026-04-30 19:40 56.63039 15.84903 37389 ft 473 kts 143°
2026-04-30 19:40 56.57556 15.91556 37398 ft 473 kts 143°
2026-04-30 19:41 56.52083 15.98186 37400 ft 473 kts 143°
2026-04-30 19:41 56.46599 16.04810 37396 ft 473 kts 143°
2026-04-30 19:42 56.41115 16.11429 37394 ft 474 kts 143°
2026-04-30 19:42 56.35624 16.18025 37392 ft 474 kts 143°
2026-04-30 19:43 56.30132 16.24603 37392 ft 474 kts 143°
2026-04-30 19:44 56.22814 16.33311 37400 ft 474 kts 143°
2026-04-30 19:44 56.17316 16.39823 37391 ft 473 kts 143°
2026-04-30 19:45 56.11813 16.46321 37388 ft 473 kts 143°
2026-04-30 19:45 56.06304 16.52807 37389 ft 474 kts 143°
2026-04-30 19:46 56.00792 16.59277 37395 ft 474 kts 143°
2026-04-30 19:46 55.95324 16.65685 37394 ft 474 kts 143°
2026-04-30 19:47 55.89800 16.72122 37400 ft 473 kts 143°
2026-04-30 19:47 55.84288 16.78516 37400 ft 472 kts 143°
2026-04-30 19:48 55.78777 16.84894 37146 ft 471 kts 143°
2026-04-30 19:48 55.76024 16.88071 36881 ft 471 kts 143°
2026-04-30 19:48 55.73276 16.91241 36621 ft 471 kts 143°
2026-04-30 19:48 55.70529 16.94405 36199 ft 471 kts 143°
2026-04-30 19:49 55.67811 16.97533 35542 ft 473 kts 143°
2026-04-30 19:49 55.62243 17.03920 34000 ft 482 kts 143°
2026-04-30 19:49 55.59423 17.07136 33361 ft 480 kts 143°
2026-04-30 19:50 55.56625 17.10314 32861 ft 476 kts 143°
2026-04-30 19:50 55.53844 17.13472 32316 ft 474 kts 143°
2026-04-30 19:50 55.51081 17.16611 31772 ft 471 kts 143°
2026-04-30 19:50 55.48338 17.19733 31226 ft 468 kts 143°
2026-04-30 19:51 55.45609 17.22834 30683 ft 466 kts 143°
2026-04-30 19:51 55.42892 17.25914 30095 ft 463 kts 143°
2026-04-30 19:51 55.40275 17.28868 29583 ft 458 kts 143°
2026-04-30 19:51 55.37599 17.31878 29051 ft 454 kts 143°
2026-04-30 19:52 55.34952 17.34848 28536 ft 450 kts 143°
2026-04-30 19:52 55.32322 17.37796 28009 ft 445 kts 142°
2026-04-30 19:52 55.29721 17.40714 27514 ft 442 kts 142°
2026-04-30 19:52 55.27140 17.43605 27030 ft 438 kts 142°
2026-04-30 19:53 55.24582 17.46467 26551 ft 434 kts 142°
2026-04-30 19:53 55.22076 17.49270 26091 ft 430 kts 142°
2026-04-30 19:53 55.19424 17.51730 25636 ft 433 kts 151°
2026-04-30 19:53 55.16678 17.53830 25214 ft 429 kts 151°
2026-04-30 19:54 55.13945 17.55919 24786 ft 427 kts 151°
2026-04-30 19:54 55.11238 17.57992 24359 ft 424 kts 151°
2026-04-30 19:54 55.08535 17.60067 23921 ft 423 kts 151°
2026-04-30 19:54 55.05850 17.62127 23435 ft 420 kts 151°
2026-04-30 19:55 55.03199 17.64197 23058 ft 412 kts 147°
2026-04-30 19:55 55.00891 17.66905 22830 ft 393 kts 131°
2026-04-30 19:55 54.99016 17.70290 22301 ft 386 kts 125°
2026-04-30 19:55 54.97216 17.73761 21814 ft 385 kts 124°
2026-04-30 19:56 54.95438 17.77230 21292 ft 383 kts 124°
2026-04-30 19:56 54.93671 17.80693 20810 ft 382 kts 124°
2026-04-30 19:56 54.91906 17.84139 20294 ft 380 kts 124°
2026-04-30 19:56 54.90143 17.87559 19808 ft 379 kts 124°
2026-04-30 19:57 54.88388 17.90955 19323 ft 377 kts 124°
2026-04-30 19:57 54.86640 17.94323 18876 ft 374 kts 124°
2026-04-30 19:57 54.84929 17.97613 18426 ft 371 kts 124°
2026-04-30 19:57 54.83205 18.00922 17941 ft 368 kts 124°
2026-04-30 19:58 54.81500 18.04196 17455 ft 364 kts 125°
2026-04-30 19:58 54.79810 18.07440 16996 ft 361 kts 125°
2026-04-30 19:58 54.78174 18.10575 16545 ft 358 kts 125°
2026-04-30 19:58 54.76511 18.13759 16087 ft 355 kts 125°
2026-04-30 19:59 54.74855 18.16920 15665 ft 352 kts 125°
2026-04-30 19:59 54.73212 18.20049 15225 ft 350 kts 125°
2026-04-30 19:59 54.69963 18.26221 14344 ft 344 kts 125°
2026-04-30 20:00 54.68360 18.29265 13890 ft 342 kts 125°
2026-04-30 20:00 54.66766 18.32295 13410 ft 340 kts 126°
2026-04-30 20:00 54.65180 18.35307 12933 ft 337 kts 126°
2026-04-30 20:00 54.63623 18.38260 12476 ft 335 kts 126°
2026-04-30 20:01 54.60495 18.44163 11565 ft 332 kts 126°
2026-04-30 20:01 54.58939 18.47093 11112 ft 330 kts 127°
2026-04-30 20:01 54.57392 18.50007 10679 ft 329 kts 127°
2026-04-30 20:02 54.54314 18.55800 9833 ft 324 kts 127°
2026-04-30 20:02 54.52798 18.58641 9485 ft 320 kts 128°
2026-04-30 20:03 54.49827 18.64208 8754 ft 312 kts 128°
2026-04-30 20:03 54.48369 18.66940 8392 ft 306 kts 128°
2026-04-30 20:03 54.46968 18.69556 8031 ft 291 kts 128°
2026-04-30 20:03 54.45606 18.72096 7677 ft 288 kts 129°
2026-04-30 20:04 54.44253 18.74615 7311 ft 286 kts 129°
2026-04-30 20:04 54.42962 18.77020 6940 ft 284 kts 129°
2026-04-30 20:04 54.41678 18.79412 6554 ft 282 kts 129°
2026-04-30 20:05 54.39087 18.84212 5727 ft 262 kts 130°
2026-04-30 20:05 54.37873 18.86455 5333 ft 250 kts 130°
2026-04-30 20:05 54.35752 18.91000 5007 ft 242 kts 114°
2026-04-30 20:06 54.35081 18.93589 5008 ft 241 kts 109°
2026-04-30 20:06 54.34422 18.96228 5011 ft 242 kts 110°
2026-04-30 20:06 54.33685 18.98819 5005 ft 244 kts 123°
2026-04-30 20:06 54.32391 19.00696 5006 ft 249 kts 154°
2026-04-30 20:07 54.30699 19.01246 5003 ft 250 kts 185°
2026-04-30 20:07 54.29051 19.00381 5017 ft 249 kts 205°
2026-04-30 20:07 54.26482 18.96748 4721 ft 241 kts 250°
2026-04-30 20:08 54.26177 18.94017 4340 ft 231 kts 276°
2026-04-30 20:08 54.26562 18.91410 4023 ft 223 kts 295°
2026-04-30 20:08 54.27172 18.88960 4006 ft 225 kts 297°
2026-04-30 20:08 54.27800 18.86504 4008 ft 225 kts 297°
2026-04-30 20:09 54.28423 18.84039 4007 ft 225 kts 297°
2026-04-30 20:09 54.29043 18.81575 4005 ft 225 kts 297°
2026-04-30 20:09 54.30237 18.76808 3929 ft 204 kts 297°
2026-04-30 20:10 54.31315 18.72508 3477 ft 193 kts 297°
2026-04-30 20:10 54.31840 18.70414 3228 ft 189 kts 297°
2026-04-30 20:10 54.32346 18.68386 2993 ft 183 kts 297°
2026-04-30 20:11 54.33333 18.64436 2481 ft 178 kts 297°
2026-04-30 20:11 54.33810 18.62519 2274 ft 165 kts 296°
2026-04-30 20:11 54.34230 18.60827 2038 ft 147 kts 297°
2026-04-30 20:12 54.35001 18.57732 1641 ft 138 kts 296°
2026-04-30 20:12 54.35374 18.56234 1457 ft 136 kts 296°
2026-04-30 20:12 54.35741 18.54755 1264 ft 135 kts 295°
2026-04-30 20:13 54.36101 18.53273 1062 ft 134 kts 294°
2026-04-30 20:13 54.36463 18.51800 880 ft 134 kts 294°
2026-04-30 20:13 54.36836 18.50323 697 ft 136 kts 293°
2026-04-30 20:13 54.37207 18.48839 524 ft 135 kts 292°
2026-04-30 20:14 54.37542 18.47494 466 ft 99 kts 292°
2026-04-30 20:14 54.37707 18.46828 454 ft 40 kts 293°
2026-04-30 20:14 54.37804 18.46468 458 ft 27 kts 294°
2026-04-30 20:14 54.37855 18.46232 458 ft 16 kts 293°
2026-04-30 20:15 54.37909 18.46039 458 ft 19 kts 301°
2026-04-30 20:15 54.37994 18.45854 455 ft 20 kts 316°
2026-04-30 20:15 54.38093 18.45718 455 ft 13 kts 336°
2026-04-30 20:15 54.38137 18.45795 455 ft 11 kts 97°